Location: Chuathbaluk
(61.5726°N, 159.2454°W)
Time: 14:37:21
(UTC+00:00)

ZACube-1 - Pass Details

Date: 26 January 2021
Orbit: 583 x 666 km, 97.6° (Epoch: 01 March)

Event Time Altitude Azimuth Distance (km) Brightness Sun altitude
Rises 16:42:47 0° 16° (NNE) 3,025 ? -17.0°
Reaches altitude 10° 16:45:03 10° 13° (NNE) 2,105 ? -16.8°
Maximum altitude 16:49:35 61° 294° (WNW) 759 ? -16.2°
Drops below altitude 10° 16:54:02 10° 215° (SW) 2,064 ? -15.7°
Sets 16:56:14 0° 212° (SSW) 2,960 ? -15.5°
